When you browse on this site, cookies collect data to enhance your experience and personalize the content and advertising you see.
Visit our Privacy Policy to learn more. By continuing to use the site, you agree to this use of cookies and data.
  • In Hungary
  • List of Countries
  • For 7 days
  • Water Temperature
  • Weather Map
  • News
  • Weather Widgets
  • user-avatar
    Login

    Hourly Weather Okoyo

    Today, 20 November, Wednesday

    Time Temperature Precipitation Wind Pressure Humidity
    00:00 +23°C° 0.3 mm 0 mps 722 mmHg 87%
    01:00 +23°C° 0 mm 0 mps 722 mmHg 89%
    02:00 +23°C° 0 mm 0 mps 722 mmHg 89%
    03:00 +22°C° 0 mm 0 mps 721 mmHg 90%
    04:00 +22°C° 0 mm 0 mps 721 mmHg 90%
    05:00 +23°C° 0 mm 0 mps 722 mmHg 89%
    06:00 +23°C° 0 mm 0 mps 722 mmHg 88%
    07:00 +24°C° 0 mm 0 mps 723 mmHg 87%
    08:00 +26°C° 1.1 mm 0 mps 723 mmHg 80%
    09:00 +29°C° 1.1 mm 1 mps 723 mmHg 74%
    10:00 +31°C° 1.1 mm 1 mps 723 mmHg 67%
    11:00 +32°C° 1 mm 1 mps 722 mmHg 63%
    12:00 +33°C° 1 mm 1 mps 721 mmHg 59%
    13:00 +34°C° 1 mm 1 mps 720 mmHg 55%
    14:00 +33°C° 0.8 mm 1 mps 720 mmHg 58%
    15:00 +33°C° 0.8 mm 1 mps 719 mmHg 60%
    16:00 +32°C° 0.8 mm 1 mps 719 mmHg 63%
    17:00 +31°C° 1 mm 1 mps 719 mmHg 69%
    18:00 +29°C° 1 mm 1 mps 720 mmHg 75%
    19:00 +25°C° 1 mm 0 mps 721 mmHg 81%
    20:00 +25°C° 0.8 mm 0 mps 721 mmHg 83%
    21:00 +24°C° 0.8 mm 0 mps 721 mmHg 85%
    22:00 +24°C° 0.8 mm 0 mps 722 mmHg 87%
    23:00 +24°C° 1 mm 0 mps 722 mmHg 89%

    Tomorrow, 21 November, Thursday

    Time Temperature Precipitation Wind Pressure Humidity
    00:00 +25°C° 1 mm 1 mps 721 mmHg 91%
    01:00 +25°C° 1 mm 1 mps 721 mmHg 92%
    02:00 +25°C° 1.4 mm 1 mps 721 mmHg 93%
    03:00 +24°C° 1.4 mm 2 mps 721 mmHg 93%
    04:00 +24°C° 1.4 mm 2 mps 721 mmHg 93%
    05:00 +25°C° 0.9 mm 2 mps 722 mmHg 92%
    06:00 +25°C° 0.9 mm 1 mps 722 mmHg 91%
    07:00 +25°C° 0.9 mm 1 mps 723 mmHg 90%
    08:00 +26°C° 1.4 mm 1 mps 723 mmHg 90%
    09:00 +26°C° 1.4 mm 1 mps 723 mmHg 90%
    10:00 +26°C° 1.4 mm 2 mps 723 mmHg 89%
    11:00 +26°C° 2 mm 2 mps 723 mmHg 90%
    12:00 +25°C° 2 mm 2 mps 722 mmHg 91%
    13:00 +25°C° 2 mm 2 mps 722 mmHg 92%
    14:00 +26°C° 0.3 mm 3 mps 721 mmHg 89%
    15:00 +26°C° 0.3 mm 3 mps 721 mmHg 86%
    16:00 +27°C° 0.3 mm 3 mps 721 mmHg 83%
    17:00 +26°C° 0 mm 3 mps 721 mmHg 85%
    18:00 +25°C° 0 mm 3 mps 722 mmHg 88%
    19:00 +24°C° 0 mm 2 mps 722 mmHg 91%
    20:00 +24°C° 0 mm 2 mps 723 mmHg 91%
    21:00 +23°C° 0 mm 2 mps 723 mmHg 92%
    22:00 +23°C° 0 mm 2 mps 724 mmHg 93%
    23:00 +23°C° 0 mm 2 mps 723 mmHg 91%

    Day after tomorrow, 22 November, Friday

    Time Temperature Precipitation Wind Pressure Humidity
    00:00 +23°C° 0 mm 2 mps 723 mmHg 90%
    01:00 +23°C° 0 mm 2 mps 723 mmHg 88%
    02:00 +23°C° 0 mm 2 mps 722 mmHg 88%
    03:00 +21°C° 0 mm 2 mps 722 mmHg 87%
    04:00 +21°C° 0 mm 2 mps 722 mmHg 87%
    05:00 +23°C° 0.1 mm 2 mps 722 mmHg 87%
    06:00 +23°C° 0.1 mm 2 mps 723 mmHg 86%
    07:00 +23°C° 0.1 mm 1 mps 723 mmHg 86%
    08:00 +25°C° 0.1 mm 1 mps 724 mmHg 80%
    09:00 +26°C° 0.1 mm 2 mps 725 mmHg 73%
    10:00 +28°C° 0.1 mm 2 mps 725 mmHg 67%
    11:00 +27°C° 0.3 mm 2 mps 725 mmHg 70%
    12:00 +27°C° 0.3 mm 2 mps 724 mmHg 74%
    13:00 +26°C° 0.3 mm 3 mps 723 mmHg 77%
    14:00 +26°C° 0.1 mm 2 mps 723 mmHg 75%
    15:00 +27°C° 0.1 mm 2 mps 723 mmHg 73%
    16:00 +27°C° 0.1 mm 2 mps 722 mmHg 71%
    17:00 +26°C° 0 mm 2 mps 723 mmHg 75%
    18:00 +25°C° 0 mm 1 mps 723 mmHg 78%
    19:00 +24°C° 0 mm 1 mps 723 mmHg 82%
    20:00 +24°C° 0 mm 1 mps 724 mmHg 81%
    21:00 +24°C° 0 mm 1 mps 724 mmHg 81%
    22:00 +23°C° 0 mm 1 mps 724 mmHg 81%
    23:00 +23°C° 0 mm 1 mps 724 mmHg 82%

    23 November, Saturday

    Time Temperature Precipitation Wind Pressure Humidity
    00:00 +23°C° 0 mm 1 mps 723 mmHg 82%
    01:00 +23°C° 0 mm 1 mps 723 mmHg 83%
    02:00 +23°C° 0 mm 1 mps 723 mmHg 84%
    03:00 +23°C° 0 mm 1 mps 723 mmHg 84%
    04:00 +21°C° 0 mm 0 mps 723 mmHg 85%
    05:00 +21°C° 0 mm 0 mps 723 mmHg 84%
    06:00 +23°C° 0 mm 1 mps 723 mmHg 84%
    07:00 +24°C° 0 mm 1 mps 724 mmHg 83%
    08:00 +25°C° 0 mm 1 mps 724 mmHg 78%
    09:00 +26°C° 0 mm 1 mps 724 mmHg 72%
    10:00 +27°C° 0 mm 1 mps 725 mmHg 67%
    11:00 +28°C° 0 mm 1 mps 724 mmHg 64%
    12:00 +29°C° 0 mm 2 mps 724 mmHg 61%
    13:00 +30°C° 0 mm 2 mps 723 mmHg 57%
    14:00 +29°C° 0 mm 2 mps 723 mmHg 61%
    15:00 +29°C° 0 mm 2 mps 722 mmHg 65%
    16:00 +28°C° 0 mm 2 mps 722 mmHg 70%
    17:00 +27°C° 0 mm 2 mps 722 mmHg 73%
    18:00 +26°C° 0 mm 1 mps 723 mmHg 77%
    19:00 +25°C° 0 mm 1 mps 723 mmHg 80%
    20:00 +25°C° 0 mm 1 mps 723 mmHg 81%
    21:00 +24°C° 0 mm 1 mps 724 mmHg 81%
    22:00 +24°C° 0 mm 1 mps 724 mmHg 81%
    23:00 +24°C° 0 mm 1 mps 723 mmHg 82%

    24 November, Sunday

    Time Temperature Precipitation Wind Pressure Humidity
    00:00 +24°C° 0 mm 1 mps 723 mmHg 82%
    01:00 +23°C° 0 mm 1 mps 723 mmHg 83%
    02:00 +21°C° 0 mm 0 mps 722 mmHg 84%
    03:00 +21°C° 0 mm 0 mps 722 mmHg 84%
    04:00 +21°C° 0 mm 0 mps 722 mmHg 85%
    05:00 +21°C° 0 mm 0 mps 722 mmHg 84%
    06:00 +21°C° 0 mm 0 mps 723 mmHg 84%
    07:00 +22°C° 0 mm 0 mps 723 mmHg 84%
    08:00 +25°C° 0 mm 1 mps 723 mmHg 80%
    09:00 +26°C° 0 mm 1 mps 724 mmHg 77%
    10:00 +27°C° 0 mm 1 mps 724 mmHg 73%
    11:00 +29°C° 0 mm 1 mps 723 mmHg 67%
    12:00 +30°C° 0 mm 1 mps 723 mmHg 62%
    13:00 +32°C° 0 mm 1 mps 722 mmHg 56%
    14:00 +32°C° 0 mm 1 mps 722 mmHg 56%
    15:00 +32°C° 0 mm 1 mps 721 mmHg 56%
    16:00 +31°C° 0 mm 2 mps 721 mmHg 56%
    17:00 +30°C° 0 mm 1 mps 721 mmHg 61%
    18:00 +28°C° 0 mm 1 mps 721 mmHg 67%
    19:00 +26°C° 0 mm 1 mps 722 mmHg 73%
    20:00 +26°C° 0 mm 1 mps 722 mmHg 73%
    21:00 +25°C° 0 mm 1 mps 723 mmHg 74%
    22:00 +25°C° 0 mm 1 mps 723 mmHg 74%
    23:00 +24°C° 0 mm 1 mps 723 mmHg 76%

    25 November, Monday

    Time Temperature Precipitation Wind Pressure Humidity
    00:00 +22°C° 0 mm 0 mps 722 mmHg 77%
    01:00 +22°C° 0 mm 0 mps 722 mmHg 79%
    02:00 +21°C° 0 mm 0 mps 722 mmHg 81%
    03:00 +21°C° 0 mm 0 mps 722 mmHg 82%
    04:00 +21°C° 0 mm 0 mps 721 mmHg 83%
    05:00 +22°C° 0 mm 0 mps 722 mmHg 82%
    06:00 +22°C° 0 mm 0 mps 722 mmHg 81%
    07:00 +23°C° 0 mm 0 mps 723 mmHg 80%
    08:00 +25°C° 0 mm 0 mps 723 mmHg 73%
    09:00 +28°C° 0 mm 0 mps 723 mmHg 65%
    10:00 +30°C° 0 mm 0 mps 724 mmHg 57%
    11:00 +32°C° 0.1 mm 1 mps 723 mmHg 55%
    12:00 +33°C° 0.1 mm 1 mps 722 mmHg 53%
    13:00 +34°C° 0.1 mm 2 mps 721 mmHg 51%
    14:00 +33°C° 0.4 mm 1 mps 721 mmHg 53%
    15:00 +32°C° 0.4 mm 1 mps 720 mmHg 56%
    16:00 +32°C° 0.4 mm 1 mps 720 mmHg 58%
    17:00 +30°C° 0.7 mm 1 mps 720 mmHg 66%
    18:00 +28°C° 0.7 mm 1 mps 721 mmHg 73%
    19:00 +26°C° 0.7 mm 1 mps 721 mmHg 81%
    20:00 +26°C° 0.2 mm 1 mps 722 mmHg 82%
    21:00 +26°C° 0.2 mm 1 mps 722 mmHg 83%
    22:00 +25°C° 0.2 mm 1 mps 723 mmHg 84%
    23:00 +25°C° 0 mm 1 mps 722 mmHg 85%
    Show more